#timestamp,LO_Frequency,Hit,StdDev 
1578945655.8,286047004.8,P
1578945675.7,286047007.6,P
1578945695.5,286047005.8,P
1578945715.4,286047003.3,N
1578945735.2,286047004.9,Y
1578945755.0,286047002.8,P
1578945755.9,286047002.8,N
1578945775.8,286047000.4,N
1578945795.6,286047000.7,N
1578945815.4,286047000.7,N
1578945835.3,286046998.9,N
1578945855.1,286046998.3,N
1578945875.9,286046999.1,N
1578945895.7,286046999.1,N
1578945915.5,286046999.3,N
1578945935.4,286046998.8,N
1578945955.2,286046999.5,N
1578945975.0,286046998.5,N
1578945975.9,286046998.5,N
1578945995.8,286046998.4,N
1578946015.6,286047000.7,N
1578946035.5,286046998.1,N
1578946055.3,286047001.1,N
1578946075.1,286047000.0,N
1578946095.9,286047000.0,N
1578946115.7,286047001.0,N
1578946135.5,286046998.5,N
1578946155.4,286046998.8,N
1578946175.2,286046999.5,N
1578946195.1,286046998.3,N
1578946196.0,286046998.3,N
1578946215.8,286047000.8,N
1578946235.6,286046999.1,N
1578946255.5,286046998.3,N
1578946275.3,286047000.4,N
1578946295.1,286047000.0,N
1578946315.9,286046999.7,N
1578946335.7,286047000.7,N
1578946355.6,286047000.5,N
1578946375.4,286047000.0,N
1578946395.2,286047002.0,N
1578946415.1,286047002.2,N
1578946416.0,286047002.2,N
1578946435.8,286047001.8,N
1578946455.6,286047003.5,N
1578946475.5,286047006.0,Y
1578946495.3,286047003.3,P
1578946515.2,286047003.7,N
1578946535.0,286047003.5,N
1578946535.9,286047003.5,N
1578946555.7,286047005.8,Y
1578946575.6,286047002.4,P
1578946595.4,286047001.4,P
1578946615.3,286047001.7,N
1578946635.1,286047001.3,N
1578946655.8,286047004.1,Y
1578946675.7,286047002.7,P
1578946695.5,286047003.8,P
1578946715.4,286047001.8,N
1578946735.2,286047002.0,N
1578946755.0,286047002.2,N
1578946755.9,286047002.2,Y
1578946775.8,286047000.3,P
1578946795.6,286047002.8,N
1578946815.4,286047000.2,N
1578946835.3,286046999.8,N
1578946855.1,286047002.6,N
1578946875.9,286047002.2,N
1578946895.7,286047001.5,N
1578946915.5,286047002.4,N
1578946935.4,286047001.7,N
1578946955.2,286047001.5,N
1578946975.0,286047002.5,N
1578946975.9,286047002.5,N
1578946995.8,286047004.3,Y
1578947015.6,286046999.7,P
1578947035.5,286047002.5,N
1578947055.3,286047002.7,N
1578947075.1,286047002.7,N
1578947095.9,286047001.9,N
1578947115.7,286047001.8,N
1578947135.5,286047004.0,Y
1578947155.4,286046999.9,P
1578947175.2,286046999.9,N
1578947195.1,286047000.4,N
1578947196.0,286047000.4,N
1578947215.8,286047000.6,N
1578947235.6,286047000.0,N
1578947255.5,286046998.1,Y
1578947275.3,286046998.6,P
1578947295.2,286046999.4,N
1578947315.9,286046999.3,N
1578947335.7,286046998.1,N
1578947355.6,286047000.8,N
1578947375.4,286047001.0,N
1578947395.2,286047002.2,N
1578947415.1,286047001.5,N
1578947416.0,286047001.5,N
1578947435.8,286047002.2,N
1578947455.7,286046999.8,N
1578947475.5,286047002.3,N
1578947495.3,286047002.8,N
1578947515.2,286047002.6,N
1578947535.9,286046999.7,N
1578947555.7,286047002.3,N
1578947575.6,286047003.1,N
1578947595.4,286047005.5,Y
1578947615.3,286047005.6,P
1578947635.1,286047003.5,N
1578947636.0,286047003.5,N
1578947655.8,286047004.2,N
1578947675.7,286047003.8,N
1578947695.5,286047001.3,N
1578947715.3,286047002.2,N
1578947735.2,286047004.0,N
1578947755.0,286047004.4,Y
1578947755.9,286047004.4,P
1578947775.8,286047000.4,N
1578947795.6,286046998.1,N
1578947815.4,286046998.2,N
1578947835.3,286047000.5,N
1578947855.1,286047000.0,N
1578947875.8,286046999.9,N
1578947895.7,286047000.0,N
1578947915.5,286047002.3,N
1578947935.3,286047003.8,N
1578947955.2,286047001.5,N
1578947975.0,286047003.2,N
1578947975.9,286047003.2,N
1578947995.8,286047005.7,N
1578948015.6,286047005.2,N
1578948035.4,286047005.8,N
1578948055.3,286047005.4,N
1578948075.1,286047004.8,N
1578948095.9,286047005.5,N
1578948115.7,286047005.2,N
1578948135.5,286047004.8,N
1578948155.4,286047004.2,N
1578948175.2,286047003.8,N
1578948195.0,286047006.0,N
1578948195.9,286047006.0,N
1578948215.8,286047005.6,N
1578948235.6,286047005.7,N
1578948255.5,286047005.6,N
1578948275.3,286047005.9,N
1578948295.1,286047004.9,N
1578948315.9,286047005.8,N
1578948335.7,286047004.8,N
1578948355.5,286047004.5,N
1578948375.4,286047007.3,Y
1578948395